#timestamp,LO_Frequency,Hit,StdDev 
1612105215.2,286047000.9,N
1612105235.1,286047002.3,N
1612105236.0,286047002.3,N
1612105255.8,286047000.2,N
1612105275.7,286047002.8,N
1612105295.5,286047002.7,N
1612105315.3,286047002.4,N
1612105335.2,286047002.1,N
1612105355.0,286047002.5,N
1612105355.9,286047002.5,N
1612105375.7,286047002.2,N
1612105395.6,286047002.0,N
1612105415.4,286047004.4,N
1612105435.3,286047001.4,N
1612105455.1,286047002.2,N
1612105456.0,286047002.2,N
1612105475.8,286047002.8,N
1612105495.7,286046999.9,N
1612105515.5,286046999.7,N
1612105535.4,286046999.9,N
1612105555.2,286047001.8,N
1612105575.0,286046999.7,N
1612105575.9,286046999.7,N
1612105595.8,286047000.2,N
1612105615.6,286047000.5,N
1612105635.4,286047001.1,N
1612105655.3,286047001.2,N
1612105675.1,286046998.5,N
1612105695.9,286047002.7,N
1612105715.7,286047000.0,N
1612105735.5,286047000.8,N
1612105755.4,286046999.0,N
1612105775.2,286046996.7,N
1612105795.0,286046999.6,N
1612105796.0,286046999.6,N
1612105815.8,286046996.5,N
1612105835.6,286046999.3,N
1612105855.5,286046999.6,N
1612105875.3,286046999.6,N
1612105895.1,286046997.2,N
1612105915.9,286046996.9,N
1612105935.7,286046997.4,N
1612105955.6,286046997.4,N
1612105975.4,286046997.3,N
1612105995.2,286046997.4,N
1612106015.1,286046997.1,N
1612106016.0,286046997.1,N
1612106035.8,286047002.5,N
1612106055.7,286047002.4,N
1612106075.5,286047002.7,N
1612106095.3,286047002.9,N
1612106115.2,286047005.3,N
1612106135.0,286047001.3,N
1612106135.9,286047001.3,N
1612106155.7,286046999.9,N
1612106175.6,286046996.9,N
1612106195.4,286046997.7,N
1612106215.3,286046995.8,N
1612106235.1,286046994.2,N
1612106255.8,286046995.5,N
1612106275.7,286046998.0,N
1612106295.5,286046998.9,N
1612106315.4,286046996.7,N
1612106335.2,286046992.0,Y
1612106355.0,286046990.6,P
1612106355.9,286046990.6,N
1612106375.8,286046989.3,N
1612106395.6,286046988.8,N
1612106415.5,286046989.2,N
1612106435.3,286046988.8,Y
1612106455.1,286046999.2,P
1612106475.9,286046998.3,N
1612106495.7,286047000.6,N
1612106515.5,286047001.1,N
1612106535.4,286046999.8,N
1612106555.2,286047000.0,N
1612106575.1,286047000.0,N
1612106576.0,286047000.0,N
1612106595.8,286047001.0,N
1612106615.6,286047000.3,N
1612106635.5,286047000.6,N
1612106655.3,286047000.0,N
1612106675.2,286047000.0,N
1612106695.9,286047000.2,N
1612106715.7,286047000.0,N
1612106735.6,286047002.5,N
1612106755.4,286047001.5,N
1612106775.2,286047001.7,N
1612106795.1,286047001.3,N
1612106796.0,286047001.3,N
1612106815.8,286047002.1,N
1612106835.7,286047002.5,N
1612106855.5,286047002.6,N
1612106875.3,286047001.4,N
1612106895.2,286047002.1,N
1612106915.0,286047001.7,N
1612106915.9,286047001.7,N
1612106935.8,286047002.1,N
1612106955.6,286047000.1,N
1612106975.4,286047002.4,N
1612106995.3,286047002.7,N
1612107015.1,286047002.1,N
1612107035.8,286047000.0,N
1612107055.7,286047002.2,N
1612107075.5,286047001.6,N
1612107095.4,286047003.9,Y
1612107115.2,286047004.1,P
1612107135.0,286047003.8,N
1612107135.9,286047003.8,N
1612107155.8,286047002.0,N
1612107175.6,286047004.0,Y
1612107195.5,286047001.4,P
1612107215.3,286047002.1,N
1612107235.1,286047000.5,N
1612107255.9,286046999.8,N
1612107275.7,286047000.9,N
1612107295.5,286047000.5,N
1612107315.4,286047001.1,N
1612107335.2,286047000.8,N
1612107355.1,286047001.0,N
1612107356.0,286047001.0,N
1612107375.8,286047000.6,N
1612107395.6,286047002.4,Y
1612107415.5,286047001.8,P
1612107435.3,286046999.9,N
1612107455.2,286047000.2,N
1612107475.9,286047000.3,N
1612107495.7,286047000.9,N
1612107515.6,286047000.6,N
1612107535.4,286046998.1,Y
1612107555.2,286046999.4,P
1612107575.1,286046999.6,N
1612107576.0,286046999.6,N
1612107595.8,286046999.2,N
1612107615.7,286046998.9,N
1612107635.5,286046999.1,N
1612107655.3,286046999.1,N
1612107675.2,286046998.8,N
1612107695.0,286046999.6,N
1612107695.9,286046999.6,N
1612107715.8,286046998.3,Y
1612107735.6,286047000.6,P
1612107755.4,286047000.1,N
1612107775.3,286047002.3,P
1612107795.1,286047002.7,N
1612107815.9,286047002.0,N
1612107835.7,286047002.5,N
1612107855.5,286047002.7,N
1612107875.4,286047000.9,N
1612107895.2,286047002.0,N
1612107915.1,286047001.9,N
1612107916.0,286047001.9,N
1612107935.8,286047001.5,N
1612107955.6,286047001.6,N
1612107975.5,286047001.5,N
1612107995.3,286047002.1,N
1612108015.1,286047004.3,Y
1612108035.9,286047000.2,P
1612108055.7,286047000.1,N
1612108075.6,286046999.9,N
1612108095.4,286047000.7,N
1612108115.2,286046999.8,N
1612108135.1,286047002.1,Y
1612108136.0,286047002.1,P
1612108155.8,286047000.4,N
1612108175.7,286047000.7,N
1612108195.5,286047001.2,N
1612108215.3,286047000.8,N
1612108235.2,286047000.5,N
1612108255.0,286046999.9,N
1612108255.9,286046999.9,N
1612108275.8,286047002.6,Y
1612108295.6,286046999.7,P
1612108315.4,286046999.9,N
1612108335.3,286047002.3,P
1612108355.1,286047002.4,N
1612108375.9,286047000.1,N
1612108395.7,286047001.6,N
1612108415.5,286047002.7,N
1612108435.4,286047002.8,N
1612108455.2,286047001.9,N
1612108475.0,286047002.5,N
1612108475.9,286047002.5,N
1612108495.8,286047002.7,N
1612108515.6,286047002.8,N
1612108535.5,286047002.5,N
1612108555.3,286047002.5,N
1612108575.1,286047002.1,N
1612108595.9,286047001.5,N
1612108615.7,286047001.8,N
1612108635.6,286047004.0,Y
1612108655.4,286047000.5,P
1612108675.2,286046999.4,N
1612108695.1,286046996.5,P
1612108696.0,286046996.5,N
1612108715.8,286046999.2,N
1612108735.6,286046999.5,N
1612108755.5,286046997.2,N
1612108775.3,286046997.7,N
1612108795.2,286046999.3,N
